RH
22 17 14 12 12 14 14 12 11 10 9 8 6 4 3 2 3 4 5 9 5 7 10 12 24 32 42 38 40 40 17 14 16 17 15 11 10 10 10 10 14 21 27 36 56
26 21 15 12 10 11 12 12 10 10 9 8 6 5 4 3 3 4 5 5 6 6 14 22 19 23 26 22 26 24 14 13 14 13 12 11 10 10 9 8 7 14 45 46 59
29 25 20 13 10 9 10 10 10 10 9 8 6 5 4 3 12 9 10 9 5 6 20 18 17 17 14 20 22 19 14 13 12 10 10 10 9 8 8 8 7 8 25 52 57
32 30 26 17 10 12 11 12 11 10 10 9 7 5 4 6 10 11 9 10 6 17 20 16 15 15 13 17 19 20 13 13 11 9 9 9 8 7 7 7 8 8 12 47 54
34 32 29 21 13 16 15 12 9 8 7 6 6 5 4 10 9 10 10 10 8 16 16 14 13 12 13 13 15 14 10 9 8 8 8 8 8 7 7 13 9 15 19 39 48
35 32 29 24 13 17 16 10 9 8 6 5 5 5 8 5 10 13 12 10 12 16 14 13 11 15 16 14 12 10 10 8 8 8 8 8 6 7 14 17 13 22 26 33 41
35 32 27 24 15 16 16 11 11 10 7 6 6 5 15 10 14 12 15 19 18 15 12 14 22 22 15 11 10 9 9 7 7 7 7 8 8 12 18 18 16 24 33 39 42
33 32 28 24 15 16 15 13 10 13 11 18 14 7 8 13 15 13 14 18 19 19 17 21 24 17 12 11 10 8 8 8 7 7 7 8 10 13 20 20 22 28 35 44 50
32 30 29 22 16 13 13 13 12 14 16 14 18 21 11 12 14 18 15 15 19 20 18 17 17 12 11 10 8 8 8 8 8 8 8 7 10 14 20 22 27 31 37 41 47
32 29 27 20 19 13 12 12 13 14 13 11 13 19 14 12 12 12 16 15 10 13 15 15 12 10 8 8 10 10 9 8 9 8 8 10 12 14 19 18 23 29 36 43 45
32 28 25 20 19 15 12 14 16 18 14 12 14 17 14 12 10 11 12 14 9 8 8 8 8 8 8 9 9 9 10 9 9 8 9 11 14 15 17 16 18 21 28 34 44
31 27 24 20 20 14 18 17 23 19 15 13 13 12 12 10 8 8 12 8 8 8 8 8 9 9 8 9 10 10 10 11 9 9 9 12 13 17 16 17 18 18 22 27 33
26 25 23 19 21 12 20 14 19 20 15 12 12 10 9 9 7 7 8 8 7 8 8 8 9 9 10 10 11 10 11 11 11 10 9 10 10 17 16 16 17 18 19 22 31
20 22 21 18 26 12 22 18 21 19 14 10 8 9 9 9 7 8 8 8 7 8 8 8 8 10 10 10 10 12 9 10 10 11 11 10 11 15 15 16 18 19 21 22 28
11 17 18 18 16 20 17 18 21 21 16 9 8 9 8 7 7 7 8 8 7 8 9 10 10 10 11 11 10 11 10 10 11 11 11 10 12 16 17 18 19 20 24 28 31
4 8 14 17 17 18 18 18 22 17 16 10 7 7 6 6 6 8 7 8 8 8 8 9 10 10 10 10 11 11 12 11 13 10 13 13 13 9 12 16 16 17 24 32 35
4 4 13 22 25 19 18 23 17 16 12 10 9 8 7 8 8 7 8 9 9 12 12 11 11 10 11 12 11 11 11 12 14 13 13 16 14 11 15 17 18 22 24 32 37
4 4 16 23 20 20 23 15 20 15 12 10 10 10 9 10 11 8 9 11 11 9 10 12 16 12 12 13 15 14 13 16 19 14 13 16 18 18 17 19 22 24 24 28 36
5 4 26 24 21 20 19 15 14 15 13 12 10 11 12 11 11 10 11 10 12 12 14 14 14 12 13 13 14 17 18 14 18 19 20 14 15 13 16 19 21 23 28 32 41
5 9 29 25 21 22 15 16 16 14 14 12 14 12 14 13 13 12 13 12 13 12 12 15 17 13 14 14 15 15 15 19 17 25 23 14 18 18 19 17 19 22 29 39 47
13 19 28 26 22 19 14 14 16 16 16 14 14 14 13 14 13 14 14 15 14 14 14 13 17 17 16 17 16 17 18 20 16 20 22 19 15 16 17 19 25 25 30 40 42
37 13 24 24 18 18 14 19 22 16 16 12 13 13 14 14 16 16 17 16 18 15 16 16 15 19 16 16 16 16 18 19 21 23 20 22 21 15 16 22 24 32 38 43 47
40 29 30 30 14 14 20 18 19 17 17 15 13 13 13 15 20 17 17 18 18 15 17 17 17 22 20 18 18 19 17 19 20 22 26 24 18 14 15 16 26 35 43 45 48
52 22 29 30 31 24 21 19 20 22 18 19 16 14 15 16 17 20 18 16 18 17 22 19 18 23 19 18 19 22 18 18 20 24 20 16 15 13 15 26 33 43 48 50 54
50 34 57 30 30 31 29 25 20 21 21 19 18 15 16 20 18 18 15 15 16 21 18 17 25 20 19 16 15 16 17 16 17 17 20 17 17 17 26 38 44 46 52 54 59
49 52 47 36 47 38 40 28 23 22 24 21 21 18 16 19 18 19 16 17 17 19 19 18 24 21 23 16 15 17 15 15 14 14 15 14 19 26 34 37 42 49 53 60 66
72 70 58 35 29 30 24 28 27 28 25 24 25 22 19 20 22 20 17 19 18 21 21 24 20 24 23 16 18 20 16 15 15 16 20 31 31 33 37 42 49 53 61 65 74
Wind_Speed
21 20 19 17 16 14 13 12 10 9 8 7 8 7 7 8 9 10 10 9 11 13 10 10 9 7 7 6 6 4 7 3 1 3 6 9 13 11 11 7 6 3 6 3 25
22 22 21 20 18 15 13 12 11 9 7 7 6 6 5 5 6 8 7 8 9 15 13 15 11 10 7 6 4 10 5 4 4 7 8 10 11 12 15 13 9 2 1 14 27
23 23 24 23 21 15 12 11 11 9 8 6 6 5 3 1 2 3 3 8 11 14 12 11 9 9 8 6 6 2 7 3 7 7 11 15 15 13 11 11 15 13 4 19 26
23 24 26 26 20 15 13 13 13 12 10 9 6 3 2 5 2 3 1 7 14 16 14 10 10 9 8 7 5 9 5 8 11 13 15 15 15 11 6 12 16 14 8 19 25
23 25 27 27 19 16 16 15 11 8 6 4 2 4 6 3 4 3 6 10 16 15 13 10 10 7 8 4 5 10 9 8 11 13 13 9 4 4 8 17 15 11 5 16 20
23 25 27 28 20 17 18 12 7 7 6 3 4 7 7 5 7 9 11 12 11 11 10 8 5 6 3 5 7 6 10 13 6 2 1 4 5 4 14 17 14 10 1 9 16
24 25 27 28 20 18 19 9 7 7 6 6 7 7 3 5 9 11 11 7 10 7 6 8 5 7 1 5 3 9 10 4 2 2 3 3 7 9 13 13 13 12 7 2 8
24 25 26 28 20 17 19 9 5 5 6 6 7 8 4 9 7 9 8 7 7 4 5 6 5 5 6 3 6 5 5 8 8 5 4 5 10 10 13 12 13 14 9 4 2
24 25 25 26 19 17 19 10 4 3 2 4 6 4 8 5 3 7 8 3 6 5 6 5 5 5 6 9 7 5 0 1 5 3 4 6 5 9 11 12 14 16 14 9 5
25 25 25 25 19 17 18 7 5 2 3 3 3 3 7 7 6 6 10 8 5 7 7 6 7 7 6 8 1 3 2 2 0 4 3 1 5 6 8 12 14 15 16 16 11
25 25 25 24 16 17 16 7 4 1 2 2 1 2 6 3 3 7 10 9 6 7 6 6 8 3 5 3 4 4 5 4 3 3 4 1 1 5 5 9 12 14 15 16 15
25 25 24 24 12 15 11 5 5 3 3 2 3 5 5 5 6 9 11 10 8 5 5 7 2 3 2 3 5 4 5 2 2 1 8 6 6 3 3 7 10 13 13 14 14
24 24 23 23 8 12 7 9 9 6 5 2 2 3 4 7 6 13 12 5 5 5 6 4 9 5 4 4 6 2 6 4 8 7 9 6 12 10 6 6 7 12 12 14 15
23 23 22 21 6 10 4 12 9 2 5 7 6 5 5 4 6 7 10 3 4 2 4 2 4 1 0 3 6 3 5 7 10 10 8 4 10 9 8 4 4 9 14 15 16
22 21 20 17 7 5 8 12 5 1 5 6 7 4 5 5 7 7 9 6 4 5 6 7 3 3 4 3 5 6 8 9 12 13 10 11 7 9 7 7 3 6 10 13 16
20 19 18 13 4 7 11 7 1 6 3 6 5 6 9 6 5 6 7 5 1 4 3 3 2 2 3 1 2 7 9 13 8 9 10 4 5 2 4 3 3 8 10 11 12
19 17 15 5 2 8 12 1 5 6 4 6 5 5 5 5 7 6 10 10 7 8 9 6 6 6 2 8 7 9 10 7 5 6 3 4 7 6 6 4 4 8 11 11 11
17 15 9 3 4 8 6 5 6 3 1 3 2 6 7 5 4 6 8 8 3 7 3 6 8 7 1 4 6 3 7 5 7 6 6 6 6 4 3 3 1 6 12 10 11
16 12 4 4 4 8 7 7 3 1 0 2 6 9 7 6 3 7 3 2 2 2 5 4 4 5 3 1 5 5 2 5 8 7 8 3 3 8 5 3 4 11 10 11 13
16 11 3 4 4 5 6 5 2 2 3 5 8 4 9 6 8 8 8 3 6 2 2 3 6 6 5 4 3 6 3 6 4 7 9 4 8 9 7 6 11 11 11 11 12
10 5 4 4 4 6 6 0 3 2 2 4 4 5 4 4 4 4 4 6 1 4 1 2 4 8 5 9 4 6 9 3 6 5 8 10 2 6 5 6 10 15 13 14 16
4 4 4 2 6 2 5 1 0 2 2 4 4 3 6 4 5 5 7 2 2 1 3 2 5 9 7 6 2 6 5 7 6 5 8 10 14 5 4 6 13 14 13 15 17
9 5 4 1 5 6 4 4 2 3 0 3 6 4 4 5 4 4 5 5 2 1 0 2 4 8 11 10 8 9 8 9 7 7 12 11 9 2 5 15 12 12 12 16 18
5 3 2 2 2 6 4 5 6 2 2 2 1 5 7 7 4 6 7 5 3 3 2 2 8 9 12 13 8 10 12 11 12 9 15 15 19 16 14 14 12 12 14 14 17
2 2 3 1 4 3 4 2 8 7 3 2 5 5 8 8 8 7 5 6 6 4 4 3 9 12 12 14 16 16 18 16 19 20 19 19 20 17 14 10 10 9 11 15 19
5 4 3 5 4 5 4 6 8 4 4 5 7 1 4 8 7 6 7 5 5 7 7 2 9 11 15 17 17 20 20 21 22 21 20 18 16 7 9 13 10 10 12 14 20
4 4 5 1 4 5 5 4 5 3 4 1 4 6 8 5 3 3 5 2 3 6 6 6 8 7 14 7 9 13 19 18 14 11 12 11 12 13 12 11 8 10 10 12 14
Wind_Direction
13 8 0 353 345 336 330 323 319 315 308 299 289 282 274 268 264 260 260 235 216 195 175 181 169 180 189 230 237 262 256 259 121 308 330 345 335 347 343 313 359 330 335 117 165
13 8 1 355 347 339 330 324 321 320 310 298 290 286 278 274 270 265 244 215 194 194 185 171 177 177 203 224 223 255 283 5 10 318 318 315 328 330 321 334 4 79 119 157 163
12 8 2 357 349 345 341 337 332 323 314 300 294 291 281 267 162 134 198 201 186 177 179 179 183 184 225 227 199 233 291 359 304 329 317 316 308 324 305 316 347 345 192 176 176
10 7 3 358 355 355 351 340 328 314 306 293 275 257 205 144 133 139 107 188 170 165 168 172 180 206 236 225 218 263 255 290 300 312 308 300 316 313 350 345 333 314 287 194 189
9 7 3 360 1 359 350 341 336 332 328 313 234 176 150 170 111 106 99 139 159 162 180 187 196 221 235 235 242 251 292 298 295 298 295 310 314 340 354 349 345 333 219 201 202
8 6 3 360 1 3 356 1 25 14 12 55 132 142 135 168 148 119 108 121 148 163 186 200 221 223 248 248 264 341 291 291 295 343 154 317 84 17 359 351 1 16 77 201 207
5 5 3 0 0 4 4 12 24 29 52 85 115 128 129 110 145 139 122 144 161 175 189 195 192 214 205 247 263 282 282 165 127 12 99 340 113 25 357 359 9 18 41 129 199
2 2 3 2 1 4 4 4 14 33 63 68 99 117 84 140 134 158 141 134 153 194 169 182 203 248 261 295 243 261 250 183 99 340 51 302 84 32 3 10 26 27 35 59 157
359 360 1 360 358 359 359 353 5 22 50 56 97 115 126 154 123 182 175 172 161 152 158 162 192 250 222 240 205 214 120 278 133 91 328 328 33 37 16 36 37 37 40 42 54
355 357 358 358 356 358 0 11 10 59 359 58 126 181 154 145 141 146 173 155 151 153 165 204 218 226 202 241 327 353 286 129 249 68 234 116 64 69 36 47 49 47 50 50 49
350 353 357 355 355 358 8 25 351 61 357 319 120 300 130 148 169 171 172 177 179 211 222 198 232 207 23 327 334 305 299 305 116 82 259 64 71 51 35 43 51 48 42 48 47
346 349 354 355 358 359 26 63 37 319 302 291 262 242 199 164 167 161 164 192 202 200 189 203 175 59 273 289 252 242 278 35 203 150 270 189 205 165 70 58 48 45 44 39 36
345 345 351 354 358 11 41 25 10 0 257 115 165 162 178 184 192 168 179 185 218 190 207 289 74 113 193 174 214 142 329 354 325 311 241 261 237 183 134 109 66 49 40 40 31
344 342 346 358 18 1 2 354 354 9 237 134 158 139 158 192 169 169 191 229 194 67 182 175 103 67 167 64 306 270 3 301 296 297 300 314 294 181 152 143 66 34 20 22 24
339 337 341 353 349 4 329 338 340 295 220 140 128 154 174 237 121 167 195 220 214 133 238 99 184 202 241 60 335 14 318 308 301 280 283 231 261 116 149 198 131 56 26 17 12
337 333 333 346 358 351 345 337 8 231 167 145 150 175 188 181 144 135 177 196 296 221 232 85 166 281 33 192 298 310 260 250 261 263 240 117 282 234 166 131 123 47 31 18 10
335 333 331 337 286 342 347 272 236 253 148 152 155 196 201 158 154 207 185 188 222 202 191 166 160 126 341 248 192 307 317 292 238 207 336 87 277 286 115 142 38 13 8 7 3
334 332 328 308 333 340 339 236 251 46 189 124 195 180 206 175 155 175 194 189 185 253 243 244 176 190 31 11 336 4 325 322 300 302 322 168 260 99 108 147 47 336 344 350 349
335 340 316 330 325 337 286 236 340 200 41 222 182 212 165 159 250 183 218 158 87 260 263 218 179 133 93 4 293 100 295 358 278 211 259 267 237 237 178 174 329 339 327 346 339
340 334 235 314 323 322 253 273 187 356 310 226 235 253 209 175 206 215 187 147 139 91 300 99 263 182 135 218 112 336 71 237 199 277 294 258 263 263 212 340 346 326 334 337 331
344 304 249 312 322 244 253 84 193 126 306 236 211 195 222 196 260 195 166 125 170 129 302 252 257 153 186 210 317 177 208 252 293 279 304 297 311 83 283 331 327 321 325 328 323
2 254 289 336 245 237 234 199 260 222 217 222 264 262 225 191 198 200 190 20 85 239 236 79 276 271 293 71 295 275 289 274 292 281 263 281 277 44 10 307 324 314 318 319 317
332 286 309 300 248 212 154 184 248 250 218 213 198 250 213 194 192 205 153 106 93 242 342 155 256 263 222 183 195 229 229 261 276 281 266 283 280 157 269 302 340 319 319 319 316
329 276 164 198 321 297 216 206 202 171 206 302 249 214 190 196 214 179 182 142 123 101 97 225 272 267 283 325 336 276 265 248 262 275 288 285 300 296 314 332 325 329 327 327 324
323 61 334 14 116 300 256 354 232 210 207 248 192 246 218 211 210 214 197 169 176 151 206 271 269 281 268 282 280 272 268 270 270 268 272 290 292 302 326 346 329 329 328 328 329
326 333 319 280 282 265 160 207 245 185 258 184 256 197 211 239 234 222 232 225 264 163 249 232 279 277 275 273 266 269 265 265 266 271 279 277 277 13 338 303 332 322 326 333 336
345 320 293 204 236 244 245 251 227 258 187 293 318 276 219 107 317 310 277 279 304 280 273 269 283 261 278 298 294 260 251 254 263 267 277 288 336 335 323 327 316 308 322 325 337